Weather History for KLRO - March, 2013

Change the Weather History Date:

Tuesday, March 26, 2013

  Actual Average (KCHS) Record (KCHS)
Temperature  
Mean Temperature 43 °F 60 °F  
Max Temperature 51 °F 72 °F 86 °F (1938)
Min Temperature 35 °F 49 °F 24 °F (1947)
Degree Days  
Heating Degree Days 22 6  
Month to date heating degree days 214  
Since 1 July heating degree days 1850  
Cooling Degree Days 0 1  
Month to date cooling degree days 24  
Year to date cooling degree days 31  
Moisture  
Dew Point 27 °F    
Average Humidity 54    
Maximum Humidity 81    
Minimum Humidity 38    
Precipitation  
Precipitation 0.00 in 0.13 in 1.11 in (1978)
Month to date precipitation 3.10  
Year to date precipitation 9.77  
Sea Level Pressure  
Sea Level Pressure 30.04 in    
Wind  
Wind Speed 10 mph (WNW)    
Max Wind Speed 17 mph    
Max Gust Speed 25 mph    
Visibility 10 miles    
Events      
T = Trace of Precipitation, MM = Missing Value Source: NWS Daily Summary

Daily Weather History Graph

Daily Weather History Graph

Search for Another Location

Airport or City:

Trip Planner

Search our weather history database for the weather conditions in past years. The results will help you decide how hot, cold, wet, or windy it might be!

Date:

Astronomy

Mar. 26, 2013 Rise Set
Actual Time 7:14 AM EDT 7:35 PM EDT
Civil Twilight 6:49 AM EDT 7:59 PM EDT
Nautical Twilight 6:21 AM EDT 8:28 PM EDT
Astronomical Twilight 5:51 AM EDT 8:58 PM EDT
Moon 7:09 PM EDT (3/26) 6:29 AM EDT (3/26)
Length of Visible Light 13h 10m
Length of Day
12h 20m
Waxing Gibbous, 99% of the Moon is Illuminated
Mar 26
Waxing Gibbous
Mar 27
Full
Apr 3
Last Quarter
Apr 10
New
Apr 18
First Quarter

Hourly Weather History & Observations

Time (EDT) Temp. Windchill Dew Point Humidity Pressure Visibility Wind Dir Wind Speed Gust Speed Precip Events Conditions
12:15 AM 42.8 °F 37.0 °F 26.6 °F 53% 29.97 in 10.0 mi WNW 10.4 mph 17.3 mph N/A   Clear
12:35 AM 42.8 °F 37.5 °F 26.6 °F 53% 29.98 in 10.0 mi NW 9.2 mph 16.1 mph N/A   Clear
12:55 AM 42.8 °F 36.2 °F 24.8 °F 49% 29.98 in 10.0 mi WNW 12.7 mph 20.7 mph N/A   Clear
1:15 AM 42.8 °F 35.8 °F 24.8 °F 49% 29.99 in 10.0 mi WNW 13.8 mph 19.6 mph N/A   Clear
1:35 AM 42.8 °F 37.0 °F 24.8 °F 49% 29.99 in 10.0 mi WNW 10.4 mph 20.7 mph N/A   Clear
2:15 AM 41.0 °F 35.2 °F 24.8 °F 53% 29.99 in 10.0 mi WNW 9.2 mph 18.4 mph N/A   Clear
2:35 AM 41.0 °F 35.2 °F 24.8 °F 53% 29.99 in 10.0 mi WNW 9.2 mph - N/A   Clear
2:55 AM 39.2 °F 32.0 °F 24.8 °F 56% 29.99 in 10.0 mi WNW 11.5 mph 16.1 mph N/A   Clear
3:15 AM 39.2 °F 32.5 °F 24.8 °F 56% 29.99 in 10.0 mi WNW 10.4 mph 16.1 mph N/A   Clear
3:35 AM 39.2 °F 33.0 °F 26.6 °F 61% 29.99 in 10.0 mi West 9.2 mph - N/A   Clear
3:55 AM 39.2 °F 32.5 °F 26.6 °F 61% 29.99 in 10.0 mi WNW 10.4 mph 16.1 mph N/A   Clear
4:15 AM 39.2 °F 33.6 °F 26.6 °F 61% 29.99 in 10.0 mi WNW 8.1 mph - N/A   Clear
4:35 AM 37.4 °F 32.1 °F 26.6 °F 65% 29.99 in 10.0 mi West 6.9 mph - N/A   Clear
4:55 AM 37.4 °F 31.4 °F 26.6 °F 65% 29.99 in 10.0 mi WNW 8.1 mph - N/A   Clear
5:15 AM 37.4 °F 32.1 °F 26.6 °F 65% 29.99 in 10.0 mi WNW 6.9 mph - N/A   Clear
5:35 AM 37.4 °F 32.1 °F 26.6 °F 65% 29.99 in 10.0 mi WNW 6.9 mph - N/A   Clear
5:55 AM 37.4 °F 31.4 °F 26.6 °F 65% 29.99 in 10.0 mi WNW 8.1 mph - N/A   Clear
6:15 AM 37.4 °F 30.8 °F 26.6 °F 65% 30.00 in 10.0 mi WNW 9.2 mph - N/A   Clear
6:35 AM 35.6 °F 29.2 °F 26.6 °F 70% 30.01 in 10.0 mi WNW 8.1 mph - N/A   Clear
6:55 AM 35.6 °F 29.9 °F 26.6 °F 70% 30.01 in 10.0 mi WNW 6.9 mph - N/A   Clear
7:15 AM 35.6 °F 29.9 °F 26.6 °F 70% 30.02 in 10.0 mi WNW 6.9 mph - N/A   Clear
7:35 AM 35.6 °F 29.9 °F 26.6 °F 70% 30.02 in 10.0 mi WNW 6.9 mph - N/A   Clear
7:55 AM 35.6 °F 29.9 °F 28.4 °F 75% 30.02 in 10.0 mi WNW 6.9 mph - N/A   Clear
8:15 AM 37.4 °F 30.3 °F 26.6 °F 65% 30.03 in 10.0 mi WNW 10.4 mph - N/A   Clear
8:35 AM 37.4 °F 30.8 °F 28.4 °F 70% 30.03 in 10.0 mi WNW 9.2 mph - N/A   Clear
8:55 AM 39.2 °F 33.0 °F 28.4 °F 65% 30.04 in 10.0 mi West 9.2 mph - N/A   Clear
9:15 AM 39.2 °F 31.6 °F 26.6 °F 61% 30.04 in 10.0 mi WNW 12.7 mph 18.4 mph N/A   Clear
9:35 AM 39.2 °F 32.5 °F 26.6 °F 61% 30.04 in 10.0 mi WNW 10.4 mph 19.6 mph N/A   Clear
9:55 AM 41.0 °F 34.3 °F 26.6 °F 57% 30.04 in 10.0 mi NW 11.5 mph 19.6 mph N/A   Clear
10:15 AM 42.8 °F 35.8 °F 28.4 °F 57% 30.04 in 10.0 mi NW 13.8 mph 17.3 mph N/A   Clear
10:35 AM 44.6 °F 38.8 °F 28.4 °F 53% 30.04 in 10.0 mi WNW 11.5 mph - N/A   Clear
11:15 AM 44.6 °F 40.2 °F 28.4 °F 53% 30.04 in 10.0 mi West 8.1 mph 17.3 mph N/A   Clear
11:35 AM 46.4 °F 41.9 °F 28.4 °F 50% 30.03 in 10.0 mi WNW 9.2 mph - N/A   Clear
12:15 PM 46.4 °F 40.4 °F 26.6 °F 46% 30.03 in 10.0 mi WNW 13.8 mph 18.4 mph N/A   Clear
12:35 PM 48.2 °F - 28.4 °F 46% 30.03 in 10.0 mi NW 10.4 mph 16.1 mph N/A   Partly Cloudy
12:55 PM 48.2 °F - 26.6 °F 43% 30.03 in 10.0 mi NW 13.8 mph 19.6 mph N/A   Partly Cloudy
1:15 PM 48.2 °F - 26.6 °F 43% 30.02 in 10.0 mi WNW 9.2 mph 19.6 mph N/A   Partly Cloudy
1:35 PM 48.2 °F - 26.6 °F 43% 30.03 in 10.0 mi WNW 10.4 mph - N/A   Partly Cloudy
1:55 PM 48.2 °F - 26.6 °F 43% 30.02 in 10.0 mi NW 16.1 mph 20.7 mph N/A   Scattered Clouds
2:15 PM 48.2 °F - 26.6 °F 43% 30.02 in 10.0 mi WNW 15.0 mph 19.6 mph N/A   Partly Cloudy
2:35 PM 48.2 °F - 26.6 °F 43% 30.03 in 10.0 mi NW 15.0 mph 23.0 mph N/A   Partly Cloudy
2:55 PM 48.2 °F - 26.6 °F 43% 30.03 in 10.0 mi NW 17.3 mph 24.2 mph N/A   Scattered Clouds
3:15 PM 48.2 °F - 26.6 °F 43% 30.03 in 10.0 mi NW 15.0 mph 25.3 mph N/A   Partly Cloudy
3:35 PM 50.0 °F - 26.6 °F 40% 30.03 in 10.0 mi NW 13.8 mph 24.2 mph N/A   Scattered Clouds
3:55 PM 50.0 °F - 26.6 °F 40% 30.03 in 10.0 mi NW 16.1 mph 19.6 mph N/A   Scattered Clouds
4:15 PM 50.0 °F - 26.6 °F 40% 30.03 in 10.0 mi WNW 15.0 mph 23.0 mph N/A   Mostly Cloudy
4:35 PM 48.2 °F - 26.6 °F 43% 30.03 in 10.0 mi NW 12.7 mph 23.0 mph N/A   Scattered Clouds
4:55 PM 50.0 °F - 26.6 °F 40% 30.03 in 10.0 mi NNW 10.4 mph 17.3 mph N/A   Mostly Cloudy
5:15 PM 51.8 °F - 26.6 °F 38% 30.04 in 10.0 mi WNW 13.8 mph 21.9 mph N/A   Mostly Cloudy
5:35 PM 51.8 °F - 26.6 °F 38% 30.04 in 10.0 mi WNW 13.8 mph 21.9 mph N/A   Scattered Clouds
5:55 PM 51.8 °F - 26.6 °F 38% 30.06 in 10.0 mi NW 13.8 mph 21.9 mph N/A   Scattered Clouds
6:15 PM 51.8 °F - 26.6 °F 38% 30.06 in 10.0 mi NW 11.5 mph 19.6 mph N/A   Scattered Clouds
6:35 PM 51.8 °F - 26.6 °F 38% 30.07 in 10.0 mi NW 12.7 mph 18.4 mph N/A   Scattered Clouds
6:55 PM 50.0 °F - 26.6 °F 40% 30.08 in 10.0 mi NW 10.4 mph - N/A   Partly Cloudy
7:15 PM 48.2 °F - 28.4 °F 46% 30.09 in 10.0 mi NW 10.4 mph - N/A   Partly Cloudy
7:35 PM 48.2 °F - 28.4 °F 46% 30.10 in 10.0 mi NNW 6.9 mph - N/A   Clear
7:55 PM 46.4 °F 43.5 °F 28.4 °F 50% 30.11 in 10.0 mi NW 5.8 mph - N/A   Clear
8:15 PM 44.6 °F - 30.2 °F 57% 30.12 in 10.0 mi Calm Calm - N/A   Clear
8:35 PM 42.8 °F - 32.0 °F 66% 30.12 in 10.0 mi Calm Calm - N/A   Clear
8:55 PM 41.0 °F - 33.8 °F 76% 30.13 in 10.0 mi Calm Calm - N/A   Clear
9:15 PM 39.2 °F - 33.8 °F 81% 30.14 in 10.0 mi Calm Calm - N/A   Clear
9:35 PM 42.8 °F - 30.2 °F 61% 30.15 in 10.0 mi Calm Calm - N/A   Clear
10:15 PM 44.6 °F 40.7 °F 30.2 °F 57% 30.16 in 10.0 mi West 6.9 mph - N/A   Clear
10:35 PM 44.6 °F 40.7 °F 30.2 °F 57% 30.17 in 10.0 mi WNW 6.9 mph - N/A   Clear
10:55 PM 44.6 °F 40.7 °F 30.2 °F 57% 30.18 in 10.0 mi WNW 6.9 mph - N/A   Clear
11:15 PM 44.6 °F 40.7 °F 30.2 °F 57% 30.18 in 10.0 mi West 6.9 mph - N/A   Clear
11:35 PM 44.6 °F 41.4 °F 30.2 °F 57% 30.18 in 10.0 mi West 5.8 mph - N/A   Clear
11:55 PM 42.8 °F 39.3 °F 30.2 °F 61% 30.18 in 10.0 mi WNW 5.8 mph - N/A   Clear